| time (UTC) | temp F | wind direction | speed knots | gust knots | rain 1hr in | rain 24hr in | rain mn in | humidity % | barometer mb |
| 20260510130056 | 66 | 165 | 0.0 | 0.9 | 0.00 | 0.00 | 0.00 | 73 | 1014.3 |
| 20260510124605 | 64 | 158 | 0.0 | 0.9 | 0.00 | 0.00 | 0.00 | 72 | 1014.2 |
| 20260510123048 | 61 | 158 | 0.0 | 0.0 | 0.00 | 0.00 | 0.00 | 55 | 1013.9 |
| 20260510121545 | 58 | 158 | 0.0 | 0.0 | 0.00 | 0.00 | 0.00 | 35 | 1013.8 |
| 20260510120041 | 54 | 158 | 0.0 | 0.0 | 0.00 | 0.00 | 0.00 | 35 | 1013.4 |
| 20260510114541 | 52 | 158 | 0.0 | 0.0 | 0.00 | 0.00 | 0.00 | 38 | 1013.3 |
| 20260510113041 | 52 | 158 | 0.0 | 0.0 | 0.00 | 0.00 | 0.00 | 40 | 1013.2 |
| 20260510111538 | 51 | 158 | 0.0 | 0.0 | 0.00 | 0.00 | 0.00 | 41 | 1013.0 |
| 20260510110041 | 51 | 158 | 0.0 | 0.0 | 0.00 | 0.00 | 0.00 | 44 | 1012.9 |
| 20260510104534 | 51 | 158 | 0.0 | 0.0 | 0.00 | 0.00 | 0.00 | 45 | 1012.6 |
| 20260510103032 | 51 | 158 | 0.0 | 0.0 | 0.00 | 0.00 | 0.00 | 44 | 1012.4 |
| 20260510101534 | 51 | 158 | 0.0 | 0.0 | 0.00 | 0.00 | 0.00 | 44 | 1012.2 |
| 20260510100028 | 52 | 158 | 0.0 | 0.0 | 0.00 | 0.00 | 0.00 | 45 | 1012.0 |
| 20260510094527 | 52 | 158 | 0.0 | 0.0 | 0.00 | 0.00 | 0.00 | 44 | 1011.9 |
| 20260510093024 | 53 | 158 | 0.0 | 0.0 | 0.00 | 0.00 | 0.00 | 43 | 1011.8 |
| 20260510091528 | 53 | 158 | 0.0 | 0.0 | 0.00 | 0.00 | 0.00 | 45 | 1011.7 |
| 20260510090025 | 54 | 158 | 0.0 | 0.0 | 0.00 | 0.00 | 0.00 | 44 | 1011.4 |
| 20260510084517 | 54 | 158 | 0.0 | 0.0 | 0.00 | 0.00 | 0.00 | 44 | 1011.4 |
| 20260510083016 | 54 | 158 | 0.0 | 0.0 | 0.00 | 0.00 | 0.00 | 44 | 1011.3 |
| 20260510081514 | 54 | 158 | 0.0 | 0.0 | 0.00 | 0.00 | 0.00 | 45 | 1011.1 |
| 20260510080011 | 55 | 158 | 0.0 | 0.0 | 0.00 | 0.00 | 0.00 | 46 | 1011.0 |
| 20260510074510 | 56 | 158 | 0.0 | 0.0 | 0.00 | 0.00 | 0.00 | 47 | 1011.0 |
| 20260510073010 | 56 | 158 | 0.0 | 0.0 | 0.00 | 0.00 | 0.00 | 47 | 1011.0 |
| 20260510071506 | 57 | 158 | 0.0 | 0.0 | 0.00 | 0.00 | 0.00 | 45 | 1011.1 |
| 20260510070003 | 57 | 158 | 0.0 | 0.0 | 0.00 | 0.00 | 0.00 | 47 | 1011.1 |
| 20260510064507 | 57 | 158 | 0.0 | 0.0 | 0.00 | 0.00 | 0.00 | 49 | 1011.1 |
| 20260510063100 | 58 | 158 | 0.0 | 0.0 | 0.00 | 0.00 | 0.00 | 51 | 1011.0 |
| 20260510061557 | 58 | 158 | 0.0 | 0.0 | 0.00 | 0.00 | 0.00 | 52 | 1010.9 |
| 20260510060055 | 59 | 158 | 0.0 | 0.0 | 0.00 | 0.00 | 0.00 | 54 | 1011.0 |
| 20260510054553 | 59 | 158 | 0.0 | 0.0 | 0.00 | 0.00 | 0.00 | 56 | 1011.0 |
| 20260510053051 | 60 | 158 | 0.0 | 0.0 | 0.00 | 0.00 | 0.00 | 58 | 1011.0 |
| 20260510051554 | 60 | 158 | 0.0 | 0.0 | 0.00 | 0.00 | 0.00 | 61 | 1011.0 |
| 20260510050047 | 60 | 158 | 0.0 | 0.0 | 0.00 | 0.00 | 0.00 | 63 | 1011.0 |
| 20260510044547 | 61 | 158 | 0.0 | 0.0 | 0.00 | 0.00 | 0.00 | 65 | 1010.9 |
| 20260510043043 | 61 | 158 | 0.0 | 0.0 | 0.00 | 0.00 | 0.00 | 66 | 1010.9 |
| 20260510041542 | 61 | 158 | 0.0 | 0.0 | 0.00 | 0.00 | 0.00 | 67 | 1010.8 |
| 20260510040040 | 61 | 158 | 0.0 | 0.0 | 0.00 | 0.00 | 0.00 | 69 | 1010.8 |
| 20260510034545 | 62 | 158 | 0.0 | 0.0 | 0.00 | 0.00 | 0.00 | 70 | 1010.6 |
| 20260510033045 | 62 | 158 | 0.0 | 0.0 | 0.00 | 0.00 | 0.00 | 71 | 1010.6 |
| 20260510031540 | 62 | 158 | 0.0 | 0.0 | 0.00 | 0.00 | 0.00 | 71 | 1010.5 |
| 20260510030038 | 62 | 158 | 0.0 | 0.0 | 0.00 | 0.00 | 0.00 | 72 | 1010.5 |
| 20260510024538 | 63 | 158 | 0.0 | 0.0 | 0.00 | 0.00 | 0.00 | 72 | 1010.4 |
| 20260510023037 | 63 | 157 | 0.0 | 0.0 | 0.00 | 0.00 | 0.00 | 72 | 1010.3 |
| 20260510021537 | 63 | 158 | 0.0 | 0.0 | 0.00 | 0.00 | 0.00 | 72 | 1010.0 |
| 20260510020036 | 63 | 158 | 0.0 | 0.9 | 0.00 | 0.00 | 0.00 | 72 | 1009.8 |
| 20260510014536 | 63 | 158 | 0.0 | 0.9 | 0.00 | 0.00 | 0.00 | 72 | 1009.7 |
| 20260510013035 | 63 | 158 | 0.0 | 0.0 | 0.00 | 0.00 | 0.00 | 72 | 1009.5 |
| 20260510011535 | 64 | 158 | 0.0 | 1.7 | 0.00 | 0.00 | 0.00 | 72 | 1009.3 |
| 20260510010038 | 65 | 158 | 0.0 | 0.9 | 0.00 | 0.00 | 0.00 | 72 | 1009.2 |
| 20260510004534 | 66 | 158 | 0.0 | 0.9 | 0.00 | 0.00 | 0.00 | 71 | 1008.9 |
| 20260510003034 | 67 | 158 | 0.0 | 0.0 | 0.00 | 0.00 | 0.00 | 69 | 1008.8 |
| 20260510001533 | 68 | 158 | 0.0 | 0.0 | 0.00 | 0.00 | 0.00 | 67 | 1008.6 |
| 20260510000037 | 69 | 158 | 0.0 | 0.0 | 0.00 | 0.00 | 0.00 | 65 | 1008.5 |
| 20260509234540 | 70 | 158 | 0.0 | 0.0 | 0.00 | 0.00 | 0.00 | 63 | 1008.3 |
| 20260509233031 | 72 | 158 | 0.0 | 0.0 | 0.00 | 0.00 | 0.00 | 61 | 1008.3 |
| 20260509231530 | 72 | 158 | 0.0 | 0.9 | 0.00 | 0.00 | 0.00 | 56 | 1008.3 |
| 20260509230031 | 73 | 158 | 0.0 | 0.9 | 0.00 | 0.00 | 0.00 | 55 | 1008.4 |
| 20260509224543 | 74 | 158 | 0.0 | 0.9 | 0.00 | 0.00 | 0.00 | 52 | 1008.3 |
| 20260509223029 | 74 | 132 | 0.0 | 2.6 | 0.00 | 0.00 | 0.00 | 52 | 1008.3 |
| 20260509221531 | 74 | 160 | 0.0 | 1.7 | 0.00 | 0.00 | 0.00 | 52 | 1008.3 |
| 20260509220028 | 75 | 139 | 0.0 | 2.6 | 0.00 | 0.00 | 0.00 | 52 | 1008.1 |
| 20260509214528 | 75 | 266 | 0.0 | 3.5 | 0.00 | 0.00 | 0.00 | 52 | 1008.2 |
| 20260509213027 | 74 | 192 | 0.0 | 1.7 | 0.00 | 0.00 | 0.00 | 51 | 1008.0 |
| 20260509211527 | 75 | 61 | 0.0 | 2.6 | 0.00 | 0.00 | 0.00 | 49 | 1008.2 |
| 20260509210026 | 75 | 146 | 0.0 | 2.6 | 0.00 | 0.00 | 0.00 | 49 | 1007.9 |
| 20260509204526 | 75 | 279 | 0.0 | 2.6 | 0.00 | 0.00 | 0.00 | 50 | 1007.8 |
| 20260509203031 | 75 | 174 | 0.0 | 2.6 | 0.00 | 0.00 | 0.00 | 49 | 1007.7 |
| 20260509201524 | 76 | 5 | 0.9 | 3.5 | 0.00 | 0.00 | 0.00 | 47 | 1007.7 |
| 20260509200022 | 75 | 254 | 0.0 | 4.3 | 0.00 | 0.00 | 0.00 | 50 | 1007.8 |
| 20260509194522 | 75 | 254 | 0.9 | 3.5 | 0.00 | 0.00 | 0.00 | 52 | 1008.2 |
| 20260509193019 | 74 | 165 | 0.0 | 3.5 | 0.00 | 0.00 | 0.00 | 50 | 1008.3 |
| 20260509191518 | 74 | 68 | 0.9 | 3.5 | 0.00 | 0.00 | 0.00 | 50 | 1008.7 |
| 20260509190014 | 75 | 278 | 0.9 | 6.1 | 0.00 | 0.00 | 0.00 | 48 | 1008.7 |
| 20260509184519 | 74 | 25 | 1.7 | 6.1 | 0.00 | 0.00 | 0.00 | 51 | 1009.0 |
| 20260509183009 | 73 | 219 | 1.7 | 6.1 | 0.00 | 0.00 | 0.00 | 52 | 1009.1 |
| 20260509181507 | 73 | 173 | 0.9 | 3.5 | 0.00 | 0.00 | 0.00 | 55 | 1009.2 |
| 20260509180005 | 72 | 9 | 1.7 | 3.5 | 0.00 | 0.00 | 0.00 | 56 | 1009.6 |
| 20260509174506 | 72 | 94 | 0.9 | 2.6 | 0.00 | 0.00 | 0.00 | 58 | 1009.7 |
| 20260509173004 | 72 | 108 | 1.7 | 4.3 | 0.00 | 0.00 | 0.00 | 58 | 1009.7 |
| 20260509171502 | 72 | 210 | 1.7 | 4.3 | 0.00 | 0.00 | 0.00 | 57 | 1009.8 |
| 20260509170002 | 73 | 261 | 0.9 | 7.8 | 0.00 | 0.00 | 0.00 | 55 | 1010.0 |
| 20260509164559 | 73 | 5 | 0.9 | 3.5 | 0.00 | 0.00 | 0.00 | 57 | 1010.2 |
| 20260509163056 | 73 | 343 | 0.9 | 5.2 | 0.00 | 0.00 | 0.00 | 59 | 1010.4 |
| 20260509161601 | 72 | 234 | 1.7 | 7.8 | 0.00 | 0.00 | 0.00 | 58 | 1010.5 |
| 20260509160050 | 70 | 229 | 1.7 | 6.1 | 0.00 | 0.00 | 0.00 | 59 | 1010.5 |
| 20260509154546 | 70 | 194 | 1.7 | 6.1 | 0.00 | 0.00 | 0.00 | 61 | 1010.6 |
| 20260509153051 | 70 | 261 | 0.9 | 4.3 | 0.00 | 0.00 | 0.00 | 59 | 1011.0 |
| 20260509151547 | 69 | 267 | 0.9 | 4.3 | 0.00 | 0.00 | 0.00 | 66 | 1011.1 |
| 20260509150039 | 68 | 85 | 0.9 | 4.3 | 0.00 | 0.00 | 0.00 | 66 | 1011.2 |
| 20260509144535 | 66 | 89 | 0.9 | 3.5 | 0.00 | 0.00 | 0.00 | 69 | 1011.4 |
| 20260509143030 | 64 | 267 | 0.0 | 2.6 | 0.00 | 0.00 | 0.00 | 72 | 1011.7 |
| 20260509141539 | 63 | 242 | 0.0 | 1.7 | 0.00 | 0.00 | 0.00 | 72 | 1012.3 |
| 20260509140026 | 62 | 207 | 0.0 | 2.6 | 0.00 | 0.00 | 0.00 | 73 | 1012.3 |
| 20260509134530 | 62 | 199 | 0.0 | 2.6 | 0.00 | 0.00 | 0.00 | 73 | 1012.2 |
| 20260509133022 | 61 | 248 | 0.0 | 2.6 | 0.00 | 0.00 | 0.00 | 73 | 1012.4 |
| 20260509131527 | 61 | 46 | 0.0 | 2.6 | 0.00 | 0.00 | 0.00 | 73 | 1012.7 |